Location: Jackson Park
(37.2862°N, 79.9123°W)
Time: 22:00:26
(UTC+00:00)

Transit 4A - Pass Details

Date: 16 May 2026
Orbit: 860 x 980 km, 66.8° (Epoch: 9 June)

Event Time Altitude Azimuth Distance (km) Brightness Sun altitude
Rises 21:16:36 0° 338° (NNW) 3,687 11.3 35.0°
Reaches altitude 10° 21:19:22 10° 346° (NNW) 2,738 10.6 34.5°
Maximum altitude 21:25:23 41° 55° (NE) 1,391 8.8 33.3°
Drops below altitude 10° 21:31:18 10° 124° (SE) 2,698 10.0 32.1°
Sets 21:34:00 0° 132° (SE) 3,628 10.6 31.6°
